Date Time, Water Level, Sigma, O or I (for verified), F, R, L, Quality 
2017-09-07 00:00,3.291,0.007,0,0,0,0,v
2017-09-07 00:06,3.369,0.013,0,0,0,0,v
2017-09-07 00:12,3.458,0.010,0,0,0,0,v
2017-09-07 00:18,3.533,0.033,0,0,0,0,v
2017-09-07 00:24,3.586,0.007,0,0,0,0,v
2017-09-07 00:30,3.655,0.007,0,0,0,0,v
2017-09-07 00:36,3.707,0.007,0,0,0,0,v
2017-09-07 00:42,3.737,0.003,0,0,0,0,v
2017-09-07 00:48,3.747,0.000,0,0,0,0,v
2017-09-07 00:54,3.770,0.000,0,0,0,0,v
2017-09-07 01:00,3.783,0.000,0,0,0,0,v
2017-09-07 01:06,3.789,0.000,0,0,0,0,v
2017-09-07 01:12,3.783,0.000,0,0,0,0,v
2017-09-07 01:18,3.789,0.000,0,0,0,0,v
2017-09-07 01:24,3.796,0.000,0,0,0,0,v
2017-09-07 01:30,3.812,0.003,0,0,0,0,v
2017-09-07 01:36,3.832,0.003,0,0,0,0,v
2017-09-07 01:42,3.855,0.003,0,0,0,0,v
2017-09-07 01:48,3.858,0.000,0,0,0,0,v
2017-09-07 01:54,3.848,0.000,0,0,0,0,v
2017-09-07 02:00,3.845,0.000,0,0,0,0,v
2017-09-07 02:06,3.839,0.003,0,0,0,0,v
2017-09-07 02:12,3.812,0.003,0,0,0,0,v
2017-09-07 02:18,3.786,0.003,0,0,0,0,v
2017-09-07 02:24,3.776,0.000,0,0,0,0,v
2017-09-07 02:30,3.770,0.000,0,0,0,0,v
2017-09-07 02:36,3.747,0.003,0,0,0,0,v
2017-09-07 02:42,3.743,0.000,0,0,0,0,v
2017-09-07 02:48,3.727,0.000,0,0,0,0,v
2017-09-07 02:54,3.698,0.003,0,0,0,0,v
2017-09-07 03:00,3.675,0.003,0,0,0,0,v
2017-09-07 03:06,3.648,0.003,0,0,0,0,v
2017-09-07 03:12,3.615,0.003,0,0,0,0,v
2017-09-07 03:18,3.576,0.007,0,0,0,0,v
2017-09-07 03:24,3.533,0.007,0,0,0,0,v
2017-09-07 03:30,3.484,0.007,0,0,0,0,v
2017-09-07 03:36,3.442,0.003,0,0,0,0,v
2017-09-07 03:42,3.402,0.007,0,0,0,0,v
2017-09-07 03:48,3.350,0.010,0,0,0,0,v
2017-09-07 03:54,3.281,0.010,0,0,0,0,v
2017-09-07 04:00,3.228,0.007,0,0,0,0,v
2017-09-07 04:06,3.169,0.010,0,0,0,0,v
2017-09-07 04:12,3.100,0.010,0,0,0,0,v
2017-09-07 04:18,3.015,0.013,0,0,0,0,v
2017-09-07 04:24,2.930,0.010,0,0,0,0,v
2017-09-07 04:30,2.854,0.010,0,0,0,0,v
2017-09-07 04:36,2.766,0.013,0,0,0,0,v
2017-09-07 04:42,2.664,0.013,0,0,0,0,v
2017-09-07 04:48,2.566,0.013,0,0,0,0,v
2017-09-07 04:54,2.470,0.010,0,0,0,0,v
2017-09-07 05:00,2.385,0.010,0,0,0,0,v
2017-09-07 05:06,2.293,0.010,0,0,0,0,v
2017-09-07 05:12,2.215,0.010,0,0,0,0,v
2017-09-07 05:18,2.152,0.010,0,0,0,0,v
2017-09-07 05:24,2.080,0.010,0,0,0,0,v
2017-09-07 05:30,2.005,0.010,0,0,0,0,v
2017-09-07 05:36,1.939,0.007,0,0,0,0,v
2017-09-07 05:42,1.880,0.007,0,0,0,0,v
2017-09-07 05:48,1.811,0.010,0,0,0,0,v
2017-09-07 05:54,1.736,0.010,0,0,0,0,v
2017-09-07 06:00,1.660,0.010,0,0,0,0,v
2017-09-07 06:06,1.588,0.007,0,0,0,0,v
2017-09-07 06:12,1.519,0.010,0,0,0,0,v
2017-09-07 06:18,1.440,0.010,0,0,0,0,v
2017-09-07 06:24,1.365,0.010,0,0,0,0,v
2017-09-07 06:30,1.299,0.007,0,0,0,0,v
2017-09-07 06:36,1.243,0.007,0,0,0,0,v
2017-09-07 06:42,1.194,0.007,0,0,0,0,v
2017-09-07 06:48,1.142,0.007,0,0,0,0,v
2017-09-07 06:54,1.089,0.007,0,0,0,0,v
2017-09-07 07:00,1.037,0.007,0,0,0,0,v
2017-09-07 07:06,0.991,0.007,0,0,0,0,v
2017-09-07 07:12,0.948,0.007,0,0,0,0,v
2017-09-07 07:18,0.892,0.007,0,0,0,0,v
2017-09-07 07:24,0.840,0.007,0,0,0,0,v
2017-09-07 07:30,0.797,0.007,0,0,0,0,v
2017-09-07 07:36,0.758,0.003,0,0,0,0,v
2017-09-07 07:42,0.725,0.003,0,0,0,0,v
2017-09-07 07:48,0.699,0.003,0,0,0,0,v
2017-09-07 07:54,0.686,0.000,0,0,0,0,v
2017-09-07 08:00,0.682,0.000,0,0,0,0,v
2017-09-07 08:06,0.676,0.003,0,0,0,0,v
2017-09-07 08:12,0.669,0.000,0,0,0,0,v
2017-09-07 08:18,0.659,0.003,0,0,0,0,v
2017-09-07 08:24,0.640,0.003,0,0,0,0,v
2017-09-07 08:30,0.630,0.003,0,0,0,0,v
2017-09-07 08:36,0.604,0.003,0,0,0,0,v
2017-09-07 08:42,0.587,0.003,0,0,0,0,v
2017-09-07 08:48,0.568,0.003,0,0,0,0,v
2017-09-07 08:54,0.561,0.003,0,0,0,0,v
2017-09-07 09:00,0.545,0.003,0,0,0,0,v
2017-09-07 09:06,0.528,0.003,0,0,0,0,v
2017-09-07 09:12,0.522,0.007,0,0,0,0,v
2017-09-07 09:18,0.528,0.003,0,0,0,0,v
2017-09-07 09:24,0.538,0.003,0,0,0,0,v
2017-09-07 09:30,0.535,0.003,0,0,0,0,v
2017-09-07 09:36,0.538,0.003,0,0,0,0,v
2017-09-07 09:42,0.551,0.003,0,0,0,0,v
2017-09-07 09:48,0.568,0.003,0,0,0,0,v
2017-09-07 09:54,0.574,0.003,0,0,0,0,v
2017-09-07 10:00,0.581,0.003,0,0,0,0,v
2017-09-07 10:06,0.604,0.003,0,0,0,0,v
2017-09-07 10:12,0.646,0.003,0,0,0,0,v
2017-09-07 10:18,0.676,0.007,0,0,0,0,v
2017-09-07 10:24,0.702,0.003,0,0,0,0,v
2017-09-07 10:30,0.738,0.013,0,0,0,0,v
2017-09-07 10:36,0.814,0.013,0,0,0,0,v
2017-09-07 10:42,0.896,0.007,0,0,0,0,v
2017-09-07 10:48,0.978,0.016,0,0,0,0,v
2017-09-07 10:54,1.086,0.020,0,0,0,0,v
2017-09-07 11:00,1.224,0.023,0,0,0,0,v
2017-09-07 11:06,1.342,0.010,0,0,0,0,v
2017-09-07 11:12,1.453,0.016,0,0,0,0,v
2017-09-07 11:18,1.581,0.016,0,0,0,0,v
2017-09-07 11:24,1.699,0.013,0,0,0,0,v
2017-09-07 11:30,1.811,0.013,0,0,0,0,v
2017-09-07 11:36,1.936,0.007,0,0,0,0,v
2017-09-07 11:42,2.041,0.007,0,0,0,0,v
2017-09-07 11:48,2.152,0.026,0,0,0,0,v
2017-09-07 11:54,2.251,0.016,0,0,0,0,v
2017-09-07 12:00,2.349,0.023,0,0,0,0,v
2017-09-07 12:06,2.474,0.013,0,0,0,0,v
2017-09-07 12:12,2.556,0.016,0,0,0,0,v
2017-09-07 12:18,2.651,0.013,0,0,0,0,v
2017-09-07 12:24,2.733,0.010,0,0,0,0,v
2017-09-07 12:30,2.799,0.007,0,0,0,0,v
2017-09-07 12:36,2.864,0.010,0,0,0,0,v
2017-09-07 12:42,2.927,0.016,0,0,0,0,v
2017-09-07 12:48,2.992,0.016,0,0,0,0,v
2017-09-07 12:54,3.054,0.007,0,0,0,0,v
2017-09-07 13:00,3.110,0.010,0,0,0,0,v
2017-09-07 13:06,3.166,0.010,0,0,0,0,v
2017-09-07 13:12,3.219,0.010,0,0,0,0,v
2017-09-07 13:18,3.268,0.003,0,0,0,0,v
2017-09-07 13:24,3.307,0.007,0,0,0,0,v
2017-09-07 13:30,3.346,0.007,0,0,0,0,v
2017-09-07 13:36,3.389,0.003,0,0,0,0,v
2017-09-07 13:42,3.425,0.007,0,0,0,0,v
2017-09-07 13:48,3.458,0.003,0,0,0,0,v
2017-09-07 13:54,3.481,0.003,0,0,0,0,v
2017-09-07 14:00,3.517,0.007,0,0,0,0,v
2017-09-07 14:06,3.553,0.007,0,0,0,0,v
2017-09-07 14:12,3.583,0.003,0,0,0,0,v
2017-09-07 14:18,3.602,0.003,0,0,0,0,v
2017-09-07 14:24,3.622,0.003,0,0,0,0,v
2017-09-07 14:30,3.635,0.003,0,0,0,0,v
2017-09-07 14:36,3.645,0.000,0,0,0,0,v
2017-09-07 14:42,3.655,0.003,0,0,0,0,v
2017-09-07 14:48,3.665,0.000,0,0,0,0,v
2017-09-07 14:54,3.668,0.000,0,0,0,0,v
2017-09-07 15:00,3.665,0.000,0,0,0,0,v
2017-09-07 15:06,3.671,0.003,0,0,0,0,v
2017-09-07 15:12,3.661,0.003,0,0,0,0,v
2017-09-07 15:18,3.645,0.003,0,0,0,0,v
2017-09-07 15:24,3.635,0.000,0,0,0,0,v
2017-09-07 15:30,3.619,0.003,0,0,0,0,v
2017-09-07 15:36,3.589,0.003,0,0,0,0,v
2017-09-07 15:42,3.560,0.003,0,0,0,0,v
2017-09-07 15:48,3.533,0.007,0,0,0,0,v
2017-09-07 15:54,3.504,0.007,0,0,0,0,v
2017-09-07 16:00,3.458,0.007,0,0,0,0,v
2017-09-07 16:06,3.409,0.007,0,0,0,0,v
2017-09-07 16:12,3.360,0.007,0,0,0,0,v
2017-09-07 16:18,3.297,0.010,0,0,0,0,v
2017-09-07 16:24,3.232,0.010,0,0,0,0,v
2017-09-07 16:30,3.150,0.010,0,0,0,0,v
2017-09-07 16:36,3.061,0.016,0,0,0,0,v
2017-09-07 16:42,2.982,0.010,0,0,0,0,v
2017-09-07 16:48,2.897,0.010,0,0,0,0,v
2017-09-07 16:54,2.808,0.030,0,0,0,0,v
2017-09-07 17:00,2.723,0.010,0,0,0,0,v
2017-09-07 17:06,2.641,0.013,0,0,0,0,v
2017-09-07 17:12,2.552,0.013,0,0,0,0,v
2017-09-07 17:18,2.464,0.013,0,0,0,0,v
2017-09-07 17:24,2.375,0.010,0,0,0,0,v
2017-09-07 17:30,2.283,0.010,0,0,0,0,v
2017-09-07 17:36,2.205,0.013,0,0,0,0,v
2017-09-07 17:42,2.113,0.033,0,0,0,0,v
2017-09-07 17:48,2.028,0.010,0,0,0,0,v
2017-09-07 17:54,1.949,0.010,0,0,0,0,v
2017-09-07 18:00,1.870,0.010,0,0,0,0,v
2017-09-07 18:06,1.785,0.010,0,0,0,0,v
2017-09-07 18:12,1.709,0.010,0,0,0,0,v
2017-09-07 18:18,1.631,0.010,0,0,0,0,v
2017-09-07 18:24,1.549,0.010,0,0,0,0,v
2017-09-07 18:30,1.473,0.010,0,0,0,0,v
2017-09-07 18:36,1.398,0.013,0,0,0,0,v
2017-09-07 18:42,1.322,0.013,0,0,0,0,v
2017-09-07 18:48,1.253,0.010,0,0,0,0,v
2017-09-07 18:54,1.188,0.010,0,0,0,0,v
2017-09-07 19:00,1.125,0.010,0,0,0,0,v
2017-09-07 19:06,1.060,0.010,0,0,0,0,v
2017-09-07 19:12,0.994,0.010,0,0,0,0,v
2017-09-07 19:18,0.942,0.007,0,0,0,0,v
2017-09-07 19:24,0.886,0.010,0,0,0,0,v
2017-09-07 19:30,0.833,0.007,0,0,0,0,v
2017-09-07 19:36,0.787,0.010,0,0,0,0,v
2017-09-07 19:42,0.732,0.007,0,0,0,0,v
2017-09-07 19:48,0.676,0.007,0,0,0,0,v
2017-09-07 19:54,0.623,0.007,0,0,0,0,v
2017-09-07 20:00,0.574,0.003,0,0,0,0,v
2017-09-07 20:06,0.528,0.007,0,0,0,0,v
2017-09-07 20:12,0.492,0.003,0,0,0,0,v
2017-09-07 20:18,0.466,0.003,0,0,0,0,v
2017-09-07 20:24,0.443,0.003,0,0,0,0,v
2017-09-07 20:30,0.420,0.003,0,0,0,0,v
2017-09-07 20:36,0.397,0.003,0,0,0,0,v
2017-09-07 20:42,0.394,0.013,0,0,0,0,v
2017-09-07 20:48,0.394,0.003,0,0,0,0,v
2017-09-07 20:54,0.404,0.003,0,0,0,0,v
2017-09-07 21:00,0.404,0.003,0,0,0,0,v
2017-09-07 21:06,0.397,0.033,0,0,0,0,v
2017-09-07 21:12,0.390,0.013,0,0,0,0,v
2017-09-07 21:18,0.413,0.003,0,0,0,0,v
2017-09-07 21:24,0.423,0.003,0,0,0,0,v
2017-09-07 21:30,0.433,0.003,0,0,0,0,v
2017-09-07 21:36,0.459,0.003,0,0,0,0,v
2017-09-07 21:42,0.486,0.007,0,0,0,0,v
2017-09-07 21:48,0.525,0.010,0,0,0,0,v
2017-09-07 21:54,0.554,0.007,0,0,0,0,v
2017-09-07 22:00,0.604,0.003,0,0,0,0,v
2017-09-07 22:06,0.653,0.010,0,0,0,0,v
2017-09-07 22:12,0.702,0.010,0,0,0,0,v
2017-09-07 22:18,0.758,0.010,0,0,0,0,v
2017-09-07 22:24,0.820,0.003,0,0,0,0,v
2017-09-07 22:30,0.892,0.016,0,0,0,0,v
2017-09-07 22:36,0.945,0.023,0,0,0,0,v
2017-09-07 22:42,1.001,0.013,0,0,0,0,v
2017-09-07 22:48,1.063,0.023,0,0,0,0,v
2017-09-07 22:54,1.106,0.013,0,0,0,0,v
2017-09-07 23:00,1.175,0.016,0,0,0,0,v
2017-09-07 23:06,1.260,0.007,0,0,0,0,v
2017-09-07 23:12,1.332,0.010,0,0,0,0,v
2017-09-07 23:18,1.401,0.007,0,0,0,0,v
2017-09-07 23:24,1.473,0.010,0,0,0,0,v
2017-09-07 23:30,1.565,0.013,0,0,0,0,v
2017-09-07 23:36,1.634,0.013,0,0,0,0,v
2017-09-07 23:42,1.729,0.016,0,0,0,0,v
2017-09-07 23:48,1.824,0.013,0,0,0,0,v
2017-09-07 23:54,1.916,0.010,0,0,0,0,v
2017-09-08 00:00,2.011,0.016,0,0,0,0,v
2017-09-08 00:06,2.087,0.016,0,0,0,0,v
2017-09-08 00:12,2.175,0.010,0,0,0,0,v
2017-09-08 00:18,2.267,0.010,0,0,0,0,v
2017-09-08 00:24,2.339,0.010,0,0,0,0,v
2017-09-08 00:30,2.428,0.010,0,0,0,0,v
2017-09-08 00:36,2.507,0.013,0,0,0,0,v
2017-09-08 00:42,2.595,0.010,0,0,0,0,v
2017-09-08 00:48,2.677,0.010,0,0,0,0,v
2017-09-08 00:54,2.749,0.010,0,0,0,0,v
2017-09-08 01:00,2.825,0.013,0,0,0,0,v
2017-09-08 01:06,2.904,0.010,0,0,0,0,v
2017-09-08 01:12,2.963,0.010,0,0,0,0,v
2017-09-08 01:18,3.031,0.010,0,0,0,0,v
2017-09-08 01:24,3.081,0.010,0,0,0,0,v
2017-09-08 01:30,3.140,0.003,0,0,0,0,v
2017-09-08 01:36,3.199,0.007,0,0,0,0,v
2017-09-08 01:42,3.241,0.007,0,0,0,0,v
2017-09-08 01:48,3.291,0.007,0,0,0,0,v
2017-09-08 01:54,3.340,0.007,0,0,0,0,v
2017-09-08 02:00,3.386,0.007,0,0,0,0,v
2017-09-08 02:06,3.432,0.007,0,0,0,0,v
2017-09-08 02:12,3.478,0.003,0,0,0,0,v
2017-09-08 02:18,3.517,0.007,0,0,0,0,v
2017-09-08 02:24,3.543,0.003,0,0,0,0,v
2017-09-08 02:30,3.576,0.003,0,0,0,0,v
2017-09-08 02:36,3.609,0.010,0,0,0,0,v
2017-09-08 02:42,3.629,0.003,0,0,0,0,v
2017-09-08 02:48,3.638,0.003,0,0,0,0,v
2017-09-08 02:54,3.652,0.000,0,0,0,0,v
2017-09-08 03:00,3.658,0.000,0,0,0,0,v
2017-09-08 03:06,3.661,0.000,0,0,0,0,v
2017-09-08 03:12,3.661,0.000,0,0,0,0,v
2017-09-08 03:18,3.661,0.000,0,0,0,0,v
2017-09-08 03:24,3.661,0.000,0,0,0,0,v
2017-09-08 03:30,3.652,0.003,0,0,0,0,v
2017-09-08 03:36,3.642,0.003,0,0,0,0,v
2017-09-08 03:42,3.635,0.003,0,0,0,0,v
2017-09-08 03:48,3.615,0.003,0,0,0,0,v
2017-09-08 03:54,3.586,0.007,0,0,0,0,v
2017-09-08 04:00,3.556,0.007,0,0,0,0,v
2017-09-08 04:06,3.517,0.007,0,0,0,0,v
2017-09-08 04:12,3.471,0.007,0,0,0,0,v
2017-09-08 04:18,3.422,0.007,0,0,0,0,v
2017-09-08 04:24,3.369,0.010,0,0,0,0,v
2017-09-08 04:30,3.310,0.010,0,0,0,0,v
2017-09-08 04:36,3.241,0.007,0,0,0,0,v
2017-09-08 04:42,3.176,0.007,0,0,0,0,v
2017-09-08 04:48,3.110,0.007,0,0,0,0,v
2017-09-08 04:54,3.041,0.007,0,0,0,0,v
2017-09-08 05:00,2.972,0.010,0,0,0,0,v
2017-09-08 05:06,2.904,0.013,0,0,0,0,v
2017-09-08 05:12,2.825,0.010,0,0,0,0,v
2017-09-08 05:18,2.746,0.010,0,0,0,0,v
2017-09-08 05:24,2.667,0.010,0,0,0,0,v
2017-09-08 05:30,2.579,0.013,0,0,0,0,v
2017-09-08 05:36,2.480,0.013,0,0,0,0,v
2017-09-08 05:42,2.388,0.013,0,0,0,0,v
2017-09-08 05:48,2.300,0.013,0,0,0,0,v
2017-09-08 05:54,2.201,0.013,0,0,0,0,v
2017-09-08 06:00,2.106,0.010,0,0,0,0,v
2017-09-08 06:06,2.018,0.010,0,0,0,0,v
2017-09-08 06:12,1.932,0.010,0,0,0,0,v
2017-09-08 06:18,1.850,0.010,0,0,0,0,v
2017-09-08 06:24,1.772,0.010,0,0,0,0,v
2017-09-08 06:30,1.696,0.010,0,0,0,0,v
2017-09-08 06:36,1.621,0.010,0,0,0,0,v
2017-09-08 06:42,1.539,0.010,0,0,0,0,v
2017-09-08 06:48,1.457,0.010,0,0,0,0,v
2017-09-08 06:54,1.378,0.010,0,0,0,0,v
2017-09-08 07:00,1.299,0.010,0,0,0,0,v
2017-09-08 07:06,1.217,0.010,0,0,0,0,v
2017-09-08 07:12,1.138,0.010,0,0,0,0,v
2017-09-08 07:18,1.066,0.010,0,0,0,0,v
2017-09-08 07:24,0.994,0.010,0,0,0,0,v
2017-09-08 07:30,0.919,0.010,0,0,0,0,v
2017-09-08 07:36,0.846,0.007,0,0,0,0,v
2017-09-08 07:42,0.787,0.007,0,0,0,0,v
2017-09-08 07:48,0.728,0.007,0,0,0,0,v
2017-09-08 07:54,0.666,0.007,0,0,0,0,v
2017-09-08 08:00,0.610,0.007,0,0,0,0,v
2017-09-08 08:06,0.551,0.007,0,0,0,0,v
2017-09-08 08:12,0.502,0.007,0,0,0,0,v
2017-09-08 08:18,0.449,0.007,0,0,0,0,v
2017-09-08 08:24,0.394,0.007,0,0,0,0,v
2017-09-08 08:30,0.341,0.007,0,0,0,0,v
2017-09-08 08:36,0.295,0.007,0,0,0,0,v
2017-09-08 08:42,0.256,0.003,0,0,0,0,v
2017-09-08 08:48,0.223,0.003,0,0,0,0,v
2017-09-08 08:54,0.187,0.003,0,0,0,0,v
2017-09-08 09:00,0.154,0.007,0,0,0,0,v
2017-09-08 09:06,0.135,0.007,0,0,0,0,v
2017-09-08 09:12,0.128,0.003,0,0,0,0,v
2017-09-08 09:18,0.118,0.000,0,0,0,0,v
2017-09-08 09:24,0.108,0.000,0,0,0,0,v
2017-09-08 09:30,0.118,0.003,0,0,0,0,v
2017-09-08 09:36,0.151,0.003,0,0,0,0,v
2017-09-08 09:42,0.151,0.003,0,0,0,0,v
2017-09-08 09:48,0.161,0.003,0,0,0,0,v
2017-09-08 09:54,0.167,0.013,0,0,0,0,v
2017-09-08 10:00,0.226,0.003,0,0,0,0,v
2017-09-08 10:06,0.233,0.000,0,0,0,0,v
2017-09-08 10:12,0.272,0.007,0,0,0,0,v
2017-09-08 10:18,0.318,0.007,0,0,0,0,v
2017-09-08 10:24,0.381,0.010,0,0,0,0,v
2017-09-08 10:30,0.420,0.003,0,0,0,0,v
2017-09-08 10:36,0.469,0.033,0,0,0,0,v
2017-09-08 10:42,0.581,0.013,0,0,0,0,v
2017-09-08 10:48,0.656,0.010,0,0,0,0,v
2017-09-08 10:54,0.738,0.013,0,0,0,0,v
2017-09-08 11:00,0.823,0.010,0,0,0,0,v
2017-09-08 11:06,0.899,0.007,0,0,0,0,v
2017-09-08 11:12,0.988,0.013,0,0,0,0,v
2017-09-08 11:18,1.073,0.013,0,0,0,0,v
2017-09-08 11:24,1.168,0.010,0,0,0,0,v
2017-09-08 11:30,1.240,0.010,0,0,0,0,v
2017-09-08 11:36,1.302,0.010,0,0,0,0,v
2017-09-08 11:42,1.371,0.010,0,0,0,0,v
2017-09-08 11:48,1.444,0.010,0,0,0,0,v
2017-09-08 11:54,1.516,0.010,0,0,0,0,v
2017-09-08 12:00,1.604,0.013,0,0,0,0,v
2017-09-08 12:06,1.686,0.010,0,0,0,0,v
2017-09-08 12:12,1.778,0.010,0,0,0,0,v
2017-09-08 12:18,1.860,0.010,0,0,0,0,v
2017-09-08 12:24,1.949,0.010,0,0,0,0,v
2017-09-08 12:30,2.037,0.013,0,0,0,0,v
2017-09-08 12:36,2.126,0.010,0,0,0,0,v
2017-09-08 12:42,2.211,0.010,0,0,0,0,v
2017-09-08 12:48,2.300,0.010,0,0,0,0,v
2017-09-08 12:54,2.382,0.013,0,0,0,0,v
2017-09-08 13:00,2.467,0.010,0,0,0,0,v
2017-09-08 13:06,2.549,0.010,0,0,0,0,v
2017-09-08 13:12,2.631,0.010,0,0,0,0,v
2017-09-08 13:18,2.717,0.010,0,0,0,0,v
2017-09-08 13:24,2.789,0.010,0,0,0,0,v
2017-09-08 13:30,2.861,0.010,0,0,0,0,v
2017-09-08 13:36,2.936,0.010,0,0,0,0,v
2017-09-08 13:42,3.015,0.010,0,0,0,0,v
2017-09-08 13:48,3.081,0.007,0,0,0,0,v
2017-09-08 13:54,3.136,0.007,0,0,0,0,v
2017-09-08 14:00,3.196,0.016,0,0,0,0,v
2017-09-08 14:06,3.261,0.010,0,0,0,0,v
2017-09-08 14:12,3.310,0.007,0,0,0,0,v
2017-09-08 14:18,3.360,0.007,0,0,0,0,v
2017-09-08 14:24,3.406,0.010,0,0,0,0,v
2017-09-08 14:30,3.445,0.007,0,0,0,0,v
2017-09-08 14:36,3.481,0.003,0,0,0,0,v
2017-09-08 14:42,3.510,0.003,0,0,0,0,v
2017-09-08 14:48,3.547,0.003,0,0,0,0,v
2017-09-08 14:54,3.570,0.003,0,0,0,0,v
2017-09-08 15:00,3.589,0.003,0,0,0,0,v
2017-09-08 15:06,3.606,0.010,0,0,0,0,v
2017-09-08 15:12,3.615,0.003,0,0,0,0,v
2017-09-08 15:18,3.615,0.003,0,0,0,0,v
2017-09-08 15:24,3.619,0.003,0,0,0,0,v
2017-09-08 15:30,3.622,0.000,0,0,0,0,v
2017-09-08 15:36,3.619,0.003,0,0,0,0,v
2017-09-08 15:42,3.599,0.003,0,0,0,0,v
2017-09-08 15:48,3.583,0.000,0,0,0,0,v
2017-09-08 15:54,3.583,0.003,0,0,0,0,v
2017-09-08 16:00,3.563,0.003,0,0,0,0,v
2017-09-08 16:06,3.537,0.003,0,0,0,0,v
2017-09-08 16:12,3.504,0.003,0,0,0,0,v
2017-09-08 16:18,3.474,0.023,0,0,0,0,v
2017-09-08 16:24,3.432,0.013,0,0,0,0,v
2017-09-08 16:30,3.379,0.007,0,0,0,0,v
2017-09-08 16:36,3.323,0.007,0,0,0,0,v
2017-09-08 16:42,3.268,0.010,0,0,0,0,v
2017-09-08 16:48,3.205,0.010,0,0,0,0,v
2017-09-08 16:54,3.136,0.007,0,0,0,0,v
2017-09-08 17:00,3.081,0.010,0,0,0,0,v
2017-09-08 17:06,3.018,0.010,0,0,0,0,v
2017-09-08 17:12,2.949,0.010,0,0,0,0,v
2017-09-08 17:18,2.884,0.010,0,0,0,0,v
2017-09-08 17:24,2.818,0.010,0,0,0,0,v
2017-09-08 17:30,2.743,0.010,0,0,0,0,v
2017-09-08 17:36,2.667,0.010,0,0,0,0,v
2017-09-08 17:42,2.589,0.010,0,0,0,0,v
2017-09-08 17:48,2.503,0.010,0,0,0,0,v
2017-09-08 17:54,2.421,0.010,0,0,0,0,v
2017-09-08 18:00,2.343,0.013,0,0,0,0,v
2017-09-08 18:06,2.251,0.013,0,0,0,0,v
2017-09-08 18:12,2.162,0.013,0,0,0,0,v
2017-09-08 18:18,2.073,0.010,0,0,0,0,v
2017-09-08 18:24,1.995,0.010,0,0,0,0,v
2017-09-08 18:30,1.913,0.010,0,0,0,0,v
2017-09-08 18:36,1.831,0.010,0,0,0,0,v
2017-09-08 18:42,1.752,0.016,0,0,0,0,v
2017-09-08 18:48,1.670,0.013,0,0,0,0,v
2017-09-08 18:54,1.588,0.010,0,0,0,0,v
2017-09-08 19:00,1.503,0.010,0,0,0,0,v
2017-09-08 19:06,1.421,0.013,0,0,0,0,v
2017-09-08 19:12,1.339,0.013,0,0,0,0,v
2017-09-08 19:18,1.253,0.010,0,0,0,0,v
2017-09-08 19:24,1.171,0.010,0,0,0,0,v
2017-09-08 19:30,1.093,0.013,0,0,0,0,v
2017-09-08 19:36,1.014,0.010,0,0,0,0,v
2017-09-08 19:42,0.948,0.020,0,0,0,0,v
2017-09-08 19:48,0.886,0.016,0,0,0,0,v
2017-09-08 19:54,0.817,0.013,0,0,0,0,v
2017-09-08 20:00,0.758,0.007,0,0,0,0,v
2017-09-08 20:06,0.705,0.007,0,0,0,0,v
2017-09-08 20:12,0.650,0.007,0,0,0,0,v
2017-09-08 20:18,0.581,0.026,0,0,0,0,v
2017-09-08 20:24,0.538,0.016,0,0,0,0,v
2017-09-08 20:30,0.492,0.036,0,0,0,0,v
2017-09-08 20:36,0.420,0.016,0,0,0,0,v
2017-09-08 20:42,0.384,0.010,0,0,0,0,v
2017-09-08 20:48,0.348,0.010,0,0,0,0,v
2017-09-08 20:54,0.292,0.046,0,0,0,0,v
2017-09-08 21:00,0.299,0.020,0,0,0,0,v
2017-09-08 21:06,0.256,0.026,0,0,0,0,v
2017-09-08 21:12,0.256,0.016,0,0,0,0,v
2017-09-08 21:18,0.253,0.010,0,0,0,0,v
2017-09-08 21:24,0.240,0.003,0,0,0,0,v
2017-09-08 21:30,0.210,0.003,0,0,0,0,v
2017-09-08 21:36,0.226,0.010,0,0,0,0,v
2017-09-08 21:42,0.220,0.003,0,0,0,0,v
2017-09-08 21:48,0.223,0.007,0,0,0,0,v
2017-09-08 21:54,0.253,0.007,0,0,0,0,v
2017-09-08 22:00,0.246,0.007,0,0,0,0,v
2017-09-08 22:06,0.285,0.010,0,0,0,0,v
2017-09-08 22:12,0.299,0.010,0,0,0,0,v
2017-09-08 22:18,0.322,0.033,0,0,0,0,v
2017-09-08 22:24,0.344,0.010,0,0,0,0,v
2017-09-08 22:30,0.374,0.010,0,0,0,0,v
2017-09-08 22:36,0.413,0.007,0,0,0,0,v
2017-09-08 22:42,0.453,0.007,0,0,0,0,v
2017-09-08 22:48,0.499,0.003,0,0,0,0,v
2017-09-08 22:54,0.541,0.003,0,0,0,0,v
2017-09-08 23:00,0.600,0.010,0,0,0,0,v
2017-09-08 23:06,0.646,0.007,0,0,0,0,v
2017-09-08 23:12,0.699,0.007,0,0,0,0,v
2017-09-08 23:18,0.764,0.010,0,0,0,0,v
2017-09-08 23:24,0.827,0.010,0,0,0,0,v
2017-09-08 23:30,0.883,0.010,0,0,0,0,v
2017-09-08 23:36,0.948,0.007,0,0,0,0,v
2017-09-08 23:42,1.010,0.007,0,0,0,0,v
2017-09-08 23:48,1.076,0.007,0,0,0,0,v
2017-09-08 23:54,1.145,0.010,0,0,0,0,v
